Language: 


Des rapports , des résumés tant et plus, au choix de chacun....


Données Historiques de Météogheer
Journalier Rapport pour Février 2, 2018 Unitée:  Métrique    Impériale   Les deux
Suivant Jour »
Journalier Hebdomadaire Mensuel Annuel Sur mesure
  Max: Min: Moyenne:
Température: 7.1 °C 1.8 °C 4.1 °C
Point de rosée: 7.0 °C 2.0 °C 4 °C
Humidité: 98% 87% 97%
Vent: 23.8km/h 0.0km/h 6.3km/h
Rafales: 25.3km/h - -
Vent- - West
Pression: 1010.0 hPa 1002.9 hPa -
Pluie: 13.7 mm    
Historical Graphs
 
 
Données tabulaires pour Février 2, 2018
Heure Température Point de rosée Pression Vent Vent Rafales Humidité Pluie Taux (Horaire) Conditions
00:00 3.3 °C 3.0 °C 1002.9 hPa West 6.1 km/h 14.0 km/h 98% 1.0 mm
00:05 3.3 °C 3.0 °C 1002.9 hPa SW 15.4 km/h 15.4 km/h 98% 1.3 mm
00:10 3.3 °C 3.0 °C 1002.9 hPa West 6.4 km/h 15.4 km/h 98% 1.0 mm
00:16 3.3 °C 3.0 °C 1002.9 hPa West 10.8 km/h 14.0 km/h 98% 1.3 mm
00:21 3.3 °C 3.0 °C 1002.9 hPa West 10.5 km/h 16.3 km/h 98% 1.5 mm
00:26 3.3 °C 3.0 °C 1002.9 hPa West 9.0 km/h 16.3 km/h 98% 1.5 mm
00:31 3.4 °C 3.0 °C 1002.9 hPa WSW 7.6 km/h 13.7 km/h 98% 1.5 mm
00:36 3.4 °C 3.0 °C 1002.9 hPa WSW 14.0 km/h 14.0 km/h 98% 1.8 mm
00:41 3.4 °C 3.0 °C 1002.9 hPa West 10.5 km/h 14.0 km/h 98% 1.8 mm
00:46 3.4 °C 3.0 °C 1003.9 hPa WSW 10.1 km/h 13.7 km/h 98% 1.5 mm
00:51 3.5 °C 4.0 °C 1003.9 hPa West 9.3 km/h 12.6 km/h 98% 1.5 mm
00:56 3.5 °C 4.0 °C 1003.9 hPa West 4.0 km/h 13.0 km/h 98% 1.3 mm
01:01 3.6 °C 4.0 °C 1002.9 hPa Calm   13.0 km/h 98% 1.3 mm
01:06 3.6 °C 4.0 °C 1002.9 hPa Calm   10.5 km/h 98% 0.8 mm
01:11 3.7 °C 4.0 °C 1002.9 hPa WSW 9.3 km/h 10.1 km/h 98% 0.5 mm
01:16 3.7 °C 4.0 °C 1002.9 hPa West 6.9 km/h 9.3 km/h 98% 0.5 mm
01:21 3.8 °C 4.0 °C 1002.9 hPa West 7.9 km/h 9.7 km/h 98% 0.3 mm
01:26 3.8 °C 4.0 °C 1002.9 hPa West 9.3 km/h 10.1 km/h 98% 0.3 mm
01:31 3.9 °C 4.0 °C 1003.9 hPa WNW 5.8 km/h 10.1 km/h 98% 0.3 mm
01:36 3.9 °C 4.0 °C 1003.9 hPa WNW 4.3 km/h 7.6 km/h 98% 0.0 mm
01:41 4.0 °C 4.0 °C 1003.9 hPa NE 5.5 km/h 10.1 km/h 98% 0.0 mm
01:46 4.1 °C 4.0 °C 1002.9 hPa West 4.0 km/h 10.1 km/h 98% 0.0 mm
01:51 4.3 °C 4.0 °C 1002.9 hPa North 5.8 km/h 9.3 km/h 98% 0.0 mm
01:56 4.3 °C 4.0 °C 1002.9 hPa WNW 4.7 km/h 12.2 km/h 98% 0.0 mm
02:01 4.4 °C 4.0 °C 1002.9 hPa West 3.2 km/h 15.4 km/h 98% 0.0 mm
02:06 4.4 °C 4.0 °C 1002.9 hPa WNW 5.0 km/h 15.4 km/h 98% 0.0 mm
02:12 4.5 °C 5.0 °C 1002.9 hPa NNE 3.5 km/h 13.0 km/h 98% 0.0 mm
02:17 4.5 °C 5.0 °C 1002.9 hPa North 9.0 km/h 11.9 km/h 98% 0.0 mm
02:22 4.5 °C 5.0 °C 1002.9 hPa West 5.5 km/h 14.0 km/h 98% 0.0 mm
02:27 4.4 °C 4.0 °C 1002.9 hPa WSW 2.6 km/h 14.0 km/h 98% 0.0 mm
02:32 4.4 °C 4.0 °C 1003.9 hPa WNW 2.1 km/h 12.2 km/h 98% 0.0 mm
02:37 4.3 °C 4.0 °C 1003.9 hPa West 6.1 km/h 10.1 km/h 98% 0.0 mm
02:42 4.2 °C 4.0 °C 1003.9 hPa West 5.5 km/h 10.5 km/h 98% 0.0 mm
02:47 4.1 °C 4.0 °C 1003.9 hPa Calm   10.5 km/h 98% 0.0 mm
02:52 4.0 °C 4.0 °C 1003.9 hPa Calm   6.9 km/h 98% 0.0 mm
02:57 3.8 °C 4.0 °C 1003.9 hPa West 7.6 km/h 7.6 km/h 98% 0.0 mm
03:02 3.7 °C 4.0 °C 1003.9 hPa WSW 3.2 km/h 8.7 km/h 98% 0.0 mm
03:07 3.7 °C 4.0 °C 1003.9 hPa NW 6.1 km/h 10.1 km/h 98% 0.0 mm
03:12 3.6 °C 4.0 °C 1003.9 hPa WSW 1.4 km/h 10.1 km/h 98% 0.0 mm
03:17 3.6 °C 4.0 °C 1003.9 hPa WSW 5.5 km/h 9.3 km/h 98% 0.0 mm
03:22 3.4 °C 3.0 °C 1003.9 hPa West 6.1 km/h 9.3 km/h 98% 0.0 mm
03:27 3.3 °C 3.0 °C 1003.9 hPa WSW 5.0 km/h 9.7 km/h 97% 0.0 mm
03:32 3.2 °C 3.0 °C 1002.9 hPa Calm   9.7 km/h 97% 0.0 mm
03:37 3.0 °C 3.0 °C 1002.9 hPa West 10.1 km/h 10.1 km/h 97% 0.0 mm
03:42 3.0 °C 3.0 °C 1002.9 hPa WSW 7.9 km/h 11.9 km/h 97% 0.0 mm
03:47 3.0 °C 3.0 °C 1003.9 hPa WNW 5.8 km/h 11.9 km/h 97% 0.0 mm
03:52 2.9 °C 3.0 °C 1003.9 hPa West 9.7 km/h 10.5 km/h 98% 0.0 mm
03:57 3.0 °C 3.0 °C 1003.9 hPa West 6.9 km/h 12.2 km/h 98% 0.0 mm
04:02 3.1 °C 3.0 °C 1003.9 hPa West 5.0 km/h 12.6 km/h 98% 0.0 mm
04:07 3.3 °C 3.0 °C 1003.9 hPa WSW 5.8 km/h 12.6 km/h 98% 0.0 mm
04:12 3.4 °C 3.0 °C 1003.9 hPa WNW 7.9 km/h 12.6 km/h 98% 0.0 mm
04:17 3.6 °C 4.0 °C 1003.9 hPa West 7.9 km/h 14.0 km/h 98% 0.0 mm
04:22 3.7 °C 4.0 °C 1003.9 hPa WNW 10.1 km/h 15.4 km/h 98% 0.0 mm
04:27 3.8 °C 4.0 °C 1003.9 hPa West 8.7 km/h 15.4 km/h 98% 0.0 mm
04:32 3.9 °C 4.0 °C 1003.9 hPa WSW 14.0 km/h 14.0 km/h 98% 0.0 mm
04:37 4.0 °C 4.0 °C 1003.9 hPa WNW 9.0 km/h 14.0 km/h 98% 0.0 mm
04:42 4.0 °C 4.0 °C 1003.9 hPa West 11.6 km/h 17.7 km/h 98% 0.0 mm
04:47 4.0 °C 4.0 °C 1003.9 hPa WSW 13.0 km/h 17.7 km/h 97% 0.0 mm
04:52 3.9 °C 4.0 °C 1003.9 hPa WSW 12.6 km/h 19.1 km/h 97% 0.0 mm
04:57 3.9 °C 4.0 °C 1003.9 hPa West 16.3 km/h 19.1 km/h 96% 0.0 mm
05:02 3.8 °C 3.0 °C 1003.9 hPa West 12.2 km/h 16.9 km/h 95% 0.0 mm
05:07 3.7 °C 3.0 °C 1003.9 hPa WNW 10.1 km/h 16.9 km/h 95% 0.0 mm
05:12 3.7 °C 3.0 °C 1003.9 hPa WNW 11.1 km/h 19.5 km/h 94% 0.0 mm
05:17 3.7 °C 3.0 °C 1003.9 hPa WNW 6.1 km/h 19.5 km/h 94% 0.0 mm
05:22 3.7 °C 3.0 °C 1003.9 hPa WNW 9.7 km/h 19.5 km/h 94% 0.0 mm
05:27 3.7 °C 3.0 °C 1003.9 hPa West 13.7 km/h 20.6 km/h 94% 0.0 mm
05:32 3.7 °C 3.0 °C 1003.9 hPa West 12.6 km/h 20.6 km/h 94% 0.0 mm
05:37 3.8 °C 3.0 °C 1003.9 hPa West 13.0 km/h 16.9 km/h 93% 0.0 mm
05:42 3.9 °C 3.0 °C 1003.9 hPa WSW 13.0 km/h 16.9 km/h 93% 0.0 mm
05:48 4.0 °C 3.0 °C 1003.9 hPa WNW 12.6 km/h 17.2 km/h 93% 0.0 mm
05:53 4.1 °C 3.0 °C 1003.9 hPa West 12.6 km/h 17.7 km/h 92% 0.0 mm
05:58 4.1 °C 3.0 °C 1003.9 hPa WNW 10.1 km/h 17.7 km/h 92% 0.0 mm
06:03 4.1 °C 3.0 °C 1003.9 hPa WSW 17.7 km/h 20.6 km/h 91% 0.0 mm
06:08 4.2 °C 3.0 °C 1003.9 hPa South 6.1 km/h 20.6 km/h 91% 0.0 mm
06:13 4.2 °C 3.0 °C 1003.9 hPa West 4.7 km/h 20.1 km/h 91% 0.0 mm
06:18 4.2 °C 3.0 °C 1003.9 hPa West 10.1 km/h 14.0 km/h 91% 0.0 mm
06:23 4.2 °C 3.0 °C 1003.9 hPa West 6.4 km/h 12.6 km/h 92% 0.3 mm
06:28 4.2 °C 3.0 °C 1003.9 hPa WNW 9.0 km/h 17.2 km/h 92% 0.3 mm
06:33 4.2 °C 3.0 °C 1003.9 hPa WNW 11.9 km/h 17.2 km/h 93% 0.3 mm
06:38 4.2 °C 3.0 °C 1003.9 hPa West 1.8 km/h 17.2 km/h 93% 0.5 mm
06:43 4.1 °C 3.0 °C 1003.9 hPa West 8.7 km/h 13.0 km/h 94% 0.5 mm
06:48 4.1 °C 3.0 °C 1003.9 hPa NNW 11.9 km/h 12.2 km/h 94% 0.5 mm
06:53 4.1 °C 3.0 °C 1003.9 hPa West 5.5 km/h 21.2 km/h 95% 0.5 mm
06:58 4.1 °C 4.0 °C 1003.9 hPa WSW 6.9 km/h 21.2 km/h 96% 0.5 mm
07:03 4.1 °C 4.0 °C 1003.9 hPa West 5.8 km/h 14.0 km/h 96% 0.5 mm
07:08 4.0 °C 4.0 °C 1003.9 hPa ENE 9.3 km/h 10.5 km/h 96% 0.5 mm
07:13 4.0 °C 4.0 °C 1005.0 hPa South 5.8 km/h 17.7 km/h 97% 0.5 mm
07:18 4.1 °C 4.0 °C 1005.0 hPa NW 11.9 km/h 17.7 km/h 97% 0.8 mm
07:24 4.1 °C 4.0 °C 1005.0 hPa West 13.0 km/h 15.1 km/h 98% 1.0 mm
07:29 4.1 °C 4.0 °C 1005.0 hPa WNW 11.1 km/h 15.1 km/h 98% 1.3 mm
07:34 4.0 °C 4.0 °C 1005.0 hPa NW 8.7 km/h 13.0 km/h 98% 1.3 mm
07:39 4.0 °C 4.0 °C 1005.0 hPa WSW 5.0 km/h 11.1 km/h 98% 1.0 mm
07:44 4.0 °C 4.0 °C 1005.0 hPa West 2.1 km/h 14.0 km/h 98% 1.0 mm
07:49 4.0 °C 4.0 °C 1005.0 hPa West 9.0 km/h 14.0 km/h 98% 1.0 mm
07:54 4.0 °C 4.0 °C 1005.0 hPa West 9.0 km/h 14.3 km/h 98% 1.0 mm
07:59 4.0 °C 4.0 °C 1005.0 hPa WSW 8.7 km/h 17.2 km/h 98% 1.0 mm
08:04 4.1 °C 4.0 °C 1005.0 hPa SSW 11.1 km/h 17.2 km/h 98% 1.0 mm
08:09 4.1 °C 4.0 °C 1005.0 hPa WNW 11.6 km/h 17.2 km/h 98% 1.0 mm
08:14 4.1 °C 4.0 °C 1005.0 hPa SSW 10.1 km/h 17.2 km/h 98% 0.8 mm
08:19 4.1 °C 4.0 °C 1005.0 hPa West 5.5 km/h 16.3 km/h 98% 0.8 mm
08:24 4.1 °C 4.0 °C 1005.0 hPa WSW 15.4 km/h 16.3 km/h 98% 0.3 mm
08:29 4.1 °C 4.0 °C 1005.0 hPa West 4.0 km/h 17.2 km/h 98% 0.3 mm
08:34 4.1 °C 4.0 °C 1005.0 hPa WSW 19.5 km/h 19.5 km/h 98% 0.3 mm
08:39 4.2 °C 4.0 °C 1005.0 hPa West 9.0 km/h 19.5 km/h 98% 0.3 mm
08:44 4.2 °C 4.0 °C 1005.0 hPa WSW 9.3 km/h 19.5 km/h 98% 0.3 mm
08:49 4.3 °C 4.0 °C 1005.0 hPa WSW 10.1 km/h 16.9 km/h 98% 0.3 mm
08:54 4.3 °C 4.0 °C 1005.0 hPa WSW 10.1 km/h 17.7 km/h 98% 0.3 mm
08:59 4.3 °C 4.0 °C 1005.0 hPa West 12.2 km/h 18.3 km/h 98% 0.3 mm
09:04 4.3 °C 4.0 °C 1005.0 hPa WSW 13.0 km/h 18.3 km/h 98% 0.3 mm
09:09 4.3 °C 4.0 °C 1005.0 hPa West 11.9 km/h 17.2 km/h 98% 0.3 mm
09:14 4.3 °C 4.0 °C 1005.0 hPa West 9.7 km/h 17.2 km/h 98% 0.3 mm
09:19 4.3 °C 4.0 °C 1005.0 hPa WSW 9.0 km/h 15.1 km/h 98% 0.3 mm
09:24 4.3 °C 4.0 °C 1005.0 hPa WSW 6.1 km/h 13.0 km/h 98% 0.3 mm
09:29 4.4 °C 4.0 °C 1005.0 hPa West 4.0 km/h 13.0 km/h 98% 0.0 mm
09:34 4.4 °C 4.0 °C 1005.0 hPa WSW 7.6 km/h 12.6 km/h 98% 0.0 mm
09:39 4.5 °C 5.0 °C 1005.0 hPa West 8.7 km/h 12.6 km/h 98% 0.0 mm
09:45 4.6 °C 5.0 °C 1005.0 hPa WSW 1.8 km/h 13.7 km/h 98% 0.0 mm
09:50 4.7 °C 5.0 °C 1005.0 hPa West 9.3 km/h 13.7 km/h 98% 0.0 mm
09:55 4.7 °C 5.0 °C 1005.0 hPa WSW 12.6 km/h 13.7 km/h 98% 0.0 mm
10:00 4.7 °C 5.0 °C 1005.0 hPa WSW 10.1 km/h 13.7 km/h 98% 0.0 mm
10:05 4.8 °C 5.0 °C 1005.0 hPa West 23.8 km/h 23.8 km/h 98% 0.0 mm
10:10 5.0 °C 5.0 °C 1005.0 hPa WSW 6.9 km/h 23.8 km/h 98% 0.0 mm
10:15 5.2 °C 5.0 °C 1005.0 hPa West 10.1 km/h 16.3 km/h 98% 0.0 mm
10:20 5.2 °C 5.0 °C 1005.0 hPa WSW 12.2 km/h 16.9 km/h 98% 0.0 mm
10:25 5.3 °C 6.0 °C 1005.0 hPa NNW 12.2 km/h 16.9 km/h 98% 0.0 mm
10:30 5.4 °C 6.0 °C 1005.0 hPa WNW 9.0 km/h 16.6 km/h 98% 0.0 mm
10:36 5.4 °C 6.0 °C 1005.0 hPa West 11.1 km/h 16.9 km/h 98% 0.0 mm
10:41 5.4 °C 6.0 °C 1005.0 hPa West 10.1 km/h 16.9 km/h 98% 0.0 mm
10:46 5.3 °C 6.0 °C 1005.0 hPa WSW 6.1 km/h 16.9 km/h 98% 0.0 mm
10:51 5.3 °C 6.0 °C 1005.0 hPa WSW 19.5 km/h 19.5 km/h 98% 0.0 mm
10:56 5.2 °C 5.0 °C 1005.0 hPa West 9.7 km/h 19.5 km/h 98% 0.0 mm
11:01 5.1 °C 5.0 °C 1005.0 hPa West 17.2 km/h 17.7 km/h 98% 0.0 mm
11:06 5.0 °C 5.0 °C 1005.0 hPa SW 4.7 km/h 18.3 km/h 98% 0.3 mm
11:11 5.0 °C 5.0 °C 1005.0 hPa WSW 5.8 km/h 20.9 km/h 98% 0.5 mm
11:16 5.0 °C 5.0 °C 1006.0 hPa SSW 8.7 km/h 20.9 km/h 98% 0.5 mm
11:21 5.0 °C 5.0 °C 1006.0 hPa West 11.6 km/h 15.4 km/h 98% 0.5 mm
11:26 5.0 °C 5.0 °C 1006.0 hPa West 15.8 km/h 16.9 km/h 98% 0.5 mm
11:31 5.0 °C 5.0 °C 1006.0 hPa WSW 15.4 km/h 16.9 km/h 98% 0.5 mm
11:36 5.0 °C 5.0 °C 1006.0 hPa West 16.6 km/h 19.1 km/h 98% 0.5 mm
11:41 4.9 °C 5.0 °C 1006.0 hPa WSW 16.9 km/h 21.2 km/h 98% 0.8 mm
11:46 4.9 °C 5.0 °C 1005.0 hPa WSW 7.9 km/h 21.2 km/h 98% 0.8 mm
11:51 4.9 °C 5.0 °C 1005.0 hPa Calm   18.0 km/h 98% 1.3 mm
11:56 4.9 °C 5.0 °C 1005.0 hPa NNW 8.7 km/h 17.2 km/h 98% 1.3 mm
12:01 5.0 °C 5.0 °C 1006.0 hPa NNW 6.4 km/h 17.2 km/h 98% 1.5 mm
12:06 5.1 °C 5.0 °C 1006.0 hPa NNW 13.7 km/h 16.3 km/h 98% 1.3 mm
12:11 5.1 °C 5.0 °C 1006.0 hPa NW 11.9 km/h 16.6 km/h 98% 0.8 mm
12:16 5.1 °C 5.0 °C 1006.0 hPa WNW 5.8 km/h 16.6 km/h 98% 1.3 mm
12:22 5.1 °C 5.0 °C 1006.0 hPa NNW 10.5 km/h 23.3 km/h 98% 1.3 mm
12:27 5.1 °C 5.0 °C 1006.0 hPa West 13.7 km/h 23.3 km/h 98% 1.5 mm
12:32 5.0 °C 5.0 °C 1006.0 hPa WNW 10.8 km/h 14.0 km/h 98% 1.8 mm
12:37 5.0 °C 5.0 °C 1006.0 hPa WSW 7.9 km/h 19.1 km/h 98% 1.8 mm
12:42 5.0 °C 5.0 °C 1006.0 hPa North 12.6 km/h 19.1 km/h 98% 1.8 mm
12:47 5.1 °C 5.0 °C 1006.0 hPa NNW 4.7 km/h 15.1 km/h 98% 1.8 mm
12:52 5.1 °C 5.0 °C 1006.0 hPa NNE 11.9 km/h 15.4 km/h 98% 1.5 mm
12:57 5.3 °C 6.0 °C 1006.0 hPa West 4.3 km/h 15.4 km/h 98% 1.3 mm
13:02 5.7 °C 6.0 °C 1005.0 hPa WSW 5.8 km/h 13.7 km/h 98% 1.3 mm
13:07 5.7 °C 6.0 °C 1005.0 hPa WNW 6.1 km/h 16.6 km/h 98% 1.3 mm
13:12 5.6 °C 6.0 °C 1005.0 hPa West 4.3 km/h 16.6 km/h 98% 1.3 mm
13:17 5.6 °C 6.0 °C 1005.0 hPa NW 9.0 km/h 13.7 km/h 98% 0.8 mm
13:22 6.0 °C 6.0 °C 1005.0 hPa WNW 5.5 km/h 13.0 km/h 98% 0.8 mm
13:27 6.1 °C 6.0 °C 1005.0 hPa WNW 9.0 km/h 13.0 km/h 98% 0.5 mm
13:32 6.0 °C 6.0 °C 1006.0 hPa NNW 11.9 km/h 12.6 km/h 98% 0.3 mm
13:37 6.0 °C 6.0 °C 1006.0 hPa NNW 7.9 km/h 12.6 km/h 98% 0.3 mm
13:42 6.1 °C 6.0 °C 1006.0 hPa WNW 9.3 km/h 12.6 km/h 98% 0.0 mm
13:47 6.3 °C 6.0 °C 1005.0 hPa WSW 15.8 km/h 15.8 km/h 98% 0.0 mm
13:52 6.6 °C 7.0 °C 1005.0 hPa West 10.1 km/h 16.3 km/h 98% 0.0 mm
13:57 6.7 °C 6.0 °C 1005.0 hPa NNW 17.7 km/h 17.7 km/h 97% 0.0 mm
14:02 6.9 °C 6.0 °C 1005.0 hPa NNW 12.6 km/h 25.3 km/h 95% 0.0 mm
14:07 7.1 °C 6.0 °C 1005.0 hPa North 5.8 km/h 25.3 km/h 93% 0.0 mm
14:12 6.7 °C 6.0 °C 1005.0 hPa North 14.0 km/h 21.2 km/h 93% 0.0 mm
14:17 5.8 °C 4.0 °C 1005.0 hPa North 15.4 km/h 21.2 km/h 87% 0.3 mm
14:22 5.5 °C 4.0 °C 1005.0 hPa NNW 8.7 km/h 20.6 km/h 89% 0.5 mm
14:27 5.4 °C 4.0 °C 1005.0 hPa North 6.4 km/h 16.6 km/h 91% 0.5 mm
14:32 5.2 °C 4.0 °C 1006.0 hPa NNW 7.9 km/h 16.6 km/h 91% 0.8 mm
14:37 5.0 °C 4.0 °C 1006.0 hPa NNW 10.1 km/h 16.6 km/h 91% 1.3 mm
14:42 4.0 °C 3.0 °C 1006.0 hPa NNE 12.6 km/h 22.4 km/h 89% 3.0 mm
14:48 3.8 °C 3.0 °C 1006.0 hPa WNW 7.9 km/h 22.4 km/h 93% 4.1 mm
14:53 3.7 °C 3.0 °C 1006.0 hPa NW 9.7 km/h 19.5 km/h 95% 4.6 mm
14:58 3.7 °C 3.0 °C 1006.0 hPa NNW 11.1 km/h 15.8 km/h 96% 5.3 mm
15:03 3.8 °C 3.0 °C 1006.0 hPa NNW 4.0 km/h 15.8 km/h 97% 5.3 mm
15:09 3.8 °C 4.0 °C 1006.0 hPa NNW 5.8 km/h 11.6 km/h 98% 5.3 mm
15:14 3.8 °C 4.0 °C 1007.0 hPa NNW 6.1 km/h 16.6 km/h 98% 5.3 mm
15:19 3.9 °C 4.0 °C 1007.0 hPa WNW 5.5 km/h 16.6 km/h 98% 5.3 mm
15:24 3.9 °C 4.0 °C 1007.0 hPa Calm   12.2 km/h 98% 5.3 mm
15:29 4.0 °C 4.0 °C 1007.0 hPa Calm   11.6 km/h 98% 5.3 mm
15:34 4.3 °C 4.0 °C 1007.0 hPa West 6.4 km/h 7.2 km/h 98% 5.1 mm
15:39 4.4 °C 4.0 °C 1007.0 hPa NNW 3.5 km/h 7.2 km/h 98% 3.8 mm
15:44 4.4 °C 4.0 °C 1007.0 hPa NNW 7.9 km/h 9.0 km/h 98% 2.8 mm
15:49 4.3 °C 4.0 °C 1007.0 hPa North 4.7 km/h 9.0 km/h 98% 2.5 mm
15:54 4.4 °C 4.0 °C 1007.0 hPa WNW 8.7 km/h 10.1 km/h 98% 1.8 mm
15:59 4.4 °C 4.0 °C 1007.0 hPa NNW 5.8 km/h 10.1 km/h 98% 1.3 mm
16:04 4.5 °C 5.0 °C 1007.0 hPa NNW 4.0 km/h 10.5 km/h 98% 1.5 mm
16:09 4.6 °C 5.0 °C 1007.0 hPa North 2.1 km/h 10.5 km/h 98% 1.5 mm
16:14 5.0 °C 5.0 °C 1007.0 hPa Calm   6.9 km/h 98% 1.3 mm
16:19 5.4 °C 6.0 °C 1007.0 hPa NW 6.4 km/h 6.9 km/h 98% 0.8 mm
16:24 5.1 °C 5.0 °C 1007.0 hPa NNE 2.6 km/h 12.6 km/h 98% 0.8 mm
16:29 5.1 °C 5.0 °C 1006.0 hPa ESE 3.5 km/h 13.7 km/h 98% 0.8 mm
16:34 5.0 °C 5.0 °C 1006.0 hPa NE 13.0 km/h 14.0 km/h 98% 1.3 mm
16:39 5.1 °C 5.0 °C 1006.0 hPa North 4.3 km/h 14.0 km/h 98% 1.3 mm
16:44 5.0 °C 5.0 °C 1007.0 hPa North 9.3 km/h 14.0 km/h 98% 1.0 mm
16:49 4.9 °C 5.0 °C 1007.0 hPa North 11.9 km/h 12.6 km/h 98% 0.8 mm
16:54 4.8 °C 5.0 °C 1007.0 hPa NNE 3.5 km/h 12.6 km/h 98% 0.8 mm
16:59 4.8 °C 5.0 °C 1006.0 hPa NNW 2.1 km/h 11.9 km/h 98% 0.8 mm
17:04 5.0 °C 5.0 °C 1006.0 hPa NE 9.0 km/h 9.3 km/h 98% 0.3 mm
17:09 5.1 °C 5.0 °C 1006.0 hPa Calm   9.0 km/h 98% 0.3 mm
17:14 5.1 °C 5.0 °C 1007.0 hPa NNE 5.8 km/h 10.8 km/h 98% 0.3 mm
17:19 5.0 °C 5.0 °C 1007.0 hPa North 9.7 km/h 12.2 km/h 98% 0.3 mm
17:24 4.7 °C 5.0 °C 1007.0 hPa NNE 9.7 km/h 20.6 km/h 98% 0.3 mm
17:29 4.5 °C 5.0 °C 1007.0 hPa North 13.0 km/h 20.6 km/h 98% 0.8 mm
17:34 4.4 °C 4.0 °C 1007.0 hPa WNW 5.0 km/h 13.0 km/h 98% 0.3 mm
17:39 4.3 °C 4.0 °C 1007.0 hPa Calm   12.2 km/h 98% 0.3 mm
17:44 4.3 °C 4.0 °C 1007.0 hPa Calm   6.9 km/h 98% 0.3 mm
17:49 4.2 °C 4.0 °C 1007.0 hPa Calm   4.3 km/h 98% 0.3 mm
17:54 4.1 °C 4.0 °C 1007.0 hPa Calm   5.0 km/h 98% 0.3 mm
18:00 4.0 °C 4.0 °C 1007.0 hPa Calm   6.1 km/h 98% 0.3 mm
18:05 3.8 °C 4.0 °C 1007.0 hPa Calm   6.1 km/h 98% 0.3 mm
18:10 3.7 °C 4.0 °C 1007.0 hPa Calm   3.5 km/h 98% 0.3 mm
18:15 3.7 °C 4.0 °C 1008.0 hPa Calm   1.8 km/h 98% 0.3 mm
18:20 3.8 °C 4.0 °C 1008.0 hPa Calm     98% 0.3 mm
18:25 3.9 °C 4.0 °C 1008.0 hPa Calm   1.8 km/h 98% 0.3 mm
18:30 3.9 °C 4.0 °C 1008.0 hPa Calm   4.7 km/h 98% 0.0 mm
18:35 4.0 °C 4.0 °C 1008.0 hPa North 7.9 km/h 12.2 km/h 98% 0.3 mm
18:40 4.1 °C 4.0 °C 1008.0 hPa NNW 6.1 km/h 12.2 km/h 98% 0.3 mm
18:45 4.1 °C 4.0 °C 1009.0 hPa Calm   9.0 km/h 98% 0.3 mm
18:50 4.1 °C 4.0 °C 1009.0 hPa Calm   4.7 km/h 98% 0.5 mm
18:55 4.0 °C 4.0 °C 1009.0 hPa Calm   3.2 km/h 98% 0.5 mm
19:00 4.0 °C 4.0 °C 1009.0 hPa Calm   3.2 km/h 98% 0.5 mm
19:05 4.0 °C 4.0 °C 1009.0 hPa Calm   2.1 km/h 98% 0.5 mm
19:10 4.0 °C 4.0 °C 1009.0 hPa Calm   2.1 km/h 98% 0.5 mm
19:16 4.1 °C 4.0 °C 1009.0 hPa Calm   10.5 km/h 98% 0.5 mm
19:21 4.1 °C 4.0 °C 1009.0 hPa North 4.0 km/h 10.5 km/h 98% 0.5 mm
19:26 4.1 °C 4.0 °C 1009.0 hPa Calm   6.4 km/h 98% 0.5 mm
19:31 4.1 °C 4.0 °C 1009.0 hPa NNW 6.1 km/h 6.1 km/h 98% 0.5 mm
19:36 4.0 °C 4.0 °C 1009.0 hPa Calm   6.1 km/h 98% 0.3 mm
19:41 3.9 °C 4.0 °C 1009.0 hPa Calm   6.1 km/h 98% 0.3 mm
19:46 3.8 °C 4.0 °C 1009.0 hPa Calm     98% 0.3 mm
19:51 3.7 °C 4.0 °C 1009.0 hPa Calm     98% 0.0 mm
19:56 3.5 °C 4.0 °C 1009.0 hPa Calm     98% 0.0 mm
20:01 3.4 °C 3.0 °C 1009.0 hPa WNW 1.8 km/h 1.8 km/h 98% 0.0 mm
20:06 3.4 °C 3.0 °C 1009.0 hPa Calm   5.5 km/h 98% 0.0 mm
20:11 3.3 °C 3.0 °C 1009.0 hPa Calm   5.5 km/h 98% 0.0 mm
20:16 3.2 °C 3.0 °C 1008.0 hPa Calm   5.5 km/h 98% 0.0 mm
20:21 3.1 °C 3.0 °C 1008.0 hPa Calm   5.5 km/h 98% 0.0 mm
20:26 3.0 °C 3.0 °C 1008.0 hPa Calm   4.0 km/h 98% 0.0 mm
20:31 2.9 °C 3.0 °C 1009.0 hPa Calm   4.0 km/h 98% 0.0 mm
20:36 2.8 °C 3.0 °C 1009.0 hPa Calm   4.3 km/h 98% 0.0 mm
20:41 2.7 °C 3.0 °C 1009.0 hPa Calm   4.3 km/h 98% 0.0 mm
20:46 2.7 °C 3.0 °C 1009.0 hPa Calm   4.7 km/h 98% 0.0 mm
20:51 2.8 °C 3.0 °C 1009.0 hPa Calm   7.6 km/h 98% 0.0 mm
20:56 2.8 °C 3.0 °C 1009.0 hPa Calm   7.6 km/h 98% 0.0 mm
21:01 2.8 °C 3.0 °C 1009.0 hPa Calm   5.5 km/h 98% 0.0 mm
21:06 2.8 °C 3.0 °C 1009.0 hPa Calm   5.5 km/h 98% 0.0 mm
21:11 2.8 °C 3.0 °C 1009.0 hPa NNE 1.4 km/h 4.7 km/h 98% 0.0 mm
21:16 2.8 °C 3.0 °C 1010.0 hPa Calm   5.0 km/h 98% 0.0 mm
21:21 2.8 °C 3.0 °C 1010.0 hPa Calm   5.0 km/h 98% 0.0 mm
21:26 3.0 °C 3.0 °C 1010.0 hPa NNW 3.2 km/h 7.6 km/h 98% 0.0 mm
21:31 3.0 °C 3.0 °C 1010.0 hPa Calm   7.6 km/h 98% 0.0 mm
21:36 3.0 °C 3.0 °C 1010.0 hPa Calm   6.4 km/h 98% 0.0 mm
21:41 2.9 °C 3.0 °C 1010.0 hPa Calm   5.5 km/h 98% 0.0 mm
21:46 2.7 °C 3.0 °C 1010.0 hPa Calm     98% 0.0 mm
21:52 2.4 °C 3.0 °C 1010.0 hPa Calm     98% 0.0 mm
21:57 2.3 °C 3.0 °C 1010.0 hPa Calm     98% 0.0 mm
22:02 2.3 °C 3.0 °C 1010.0 hPa Calm   3.2 km/h 98% 0.0 mm
22:07 2.5 °C 3.0 °C 1010.0 hPa Calm   3.2 km/h 98% 0.0 mm
22:12 2.6 °C 3.0 °C 1010.0 hPa Calm     98% 0.0 mm
22:17 2.4 °C 3.0 °C 1009.0 hPa Calm     98% 0.0 mm
22:22 2.4 °C 3.0 °C 1009.0 hPa Calm     98% 0.0 mm
22:27 2.4 °C 3.0 °C 1009.0 hPa Calm   4.0 km/h 98% 0.0 mm
22:32 2.5 °C 3.0 °C 1009.0 hPa Calm   4.0 km/h 98% 0.0 mm
22:37 2.4 °C 3.0 °C 1009.0 hPa Calm     98% 0.0 mm
22:42 2.3 °C 3.0 °C 1009.0 hPa Calm     98% 0.0 mm
22:47 2.1 °C 2.0 °C 1009.0 hPa Calm     98% 0.0 mm
22:52 2.1 °C 2.0 °C 1009.0 hPa Calm     98% 0.0 mm
22:57 2.0 °C 2.0 °C 1009.0 hPa Calm     98% 0.0 mm
23:02 2.0 °C 2.0 °C 1009.0 hPa Calm     98% 0.0 mm
23:07 2.0 °C 2.0 °C 1009.0 hPa Calm     98% 0.0 mm
23:12 2.0 °C 2.0 °C 1009.0 hPa Calm     98% 0.0 mm
23:17 2.0 °C 2.0 °C 1009.0 hPa Calm     98% 0.0 mm
23:22 2.0 °C 2.0 °C 1009.0 hPa Calm     98% 0.0 mm
23:27 2.1 °C 2.0 °C 1009.0 hPa Calm   4.0 km/h 98% 0.0 mm
23:32 2.1 °C 2.0 °C 1009.0 hPa Calm   4.0 km/h 98% 0.0 mm
23:37 2.1 °C 2.0 °C 1009.0 hPa Calm     98% 0.0 mm
23:42 2.0 °C 2.0 °C 1009.0 hPa Calm     98% 0.0 mm
23:48 1.9 °C 2.0 °C 1009.0 hPa Calm     98% 0.0 mm
23:53 1.8 °C 2.0 °C 1009.0 hPa Calm     98% 0.0 mm
23:58 1.8 °C 2.0 °C 1009.0 hPa Calm     98% 0.0 mm
Données Historique de Météo Turbie

Mise a jour : 24/05/2018 10:02:26
Généré par Cumulus 1.9.4 (1099)